[[{"header":{"parameterUnit":"m.s-1","parameterCategory":1,"la1":30.2991,"la2":30.254,"lo1":-89.0895,"lo2":-89.0444,"dy":0.0017,"dx":0.0017,"nx":28,"ny":28,"refTime":"2023-08-28T09:00:00:Z","depth":0,"parameterNumber":2,"parameterNumberName":"U-component_of_WINDS"},"data":[0,0,0,0,0,0,0,0,0,0,0,0,0,0,0,0,0,0,0,0,0,0,0,0,0,0,0,0,0,0,0,0,0,0,0,0,0,0,0,0,0,0,0,0,0,0,0,0,0,0,0,0,0,0,0,0,0,0,-2.4313,-2.4313,0,-2.4365,-2.4366,-2.4366,-2.4281,-2.4278,-2.4275,-2.4273,-2.4326,-2.433,-2.4334,0,0,0,0,0,0,0,0,0,0,0,0,0,-2.4136,-2.414,-2.4312,-2.4313,-2.4314,-2.4365,-2.4366,-2.4367,-2.4282,-2.4278,-2.4275,-2.4271,-2.4324,-2.4329,-2.4334,0,0,0,0,0,0,0,0,0,0,0,0,0,-2.4203,-2.4141,-2.4312,-2.4278,-2.4275,-2.4365,-2.4366,-2.4367,-2.4283,-2.4278,-2.4274,-2.427,-2.4323,-2.4329,-2.4335,-2.4461,0,0,-2.4354,-2.4356,0,0,0,0,0,0,0,0,-2.4199,-2.421,-2.4282,-2.428,-2.4278,-2.4312,-2.4323,-2.4398,-2.4284,-2.428,-2.4273,-2.4268,-2.4325,-2.433,-2.435,-2.4463,-2.4465,-2.4354,-2.4358,-2.4361,-2.4362,0,0,0,0,0,0,0,-2.4195,-2.4207,-2.4333,-2.4283,-2.428,-2.4259,-2.4263,-2.4337,-2.4326,-2.428,-2.4274,-2.4281,-2.4323,-2.4344,-2.4351,-2.4466,-2.4354,-2.436,-2.4363,-2.4366,-2.4684,-2.4689,0,0,0,0,0,0,-2.4195,-2.4204,-2.4332,-2.4335,-2.4227,-2.4265,-2.4271,-2.4305,-2.4325,-2.4324,-2.4285,-2.4277,-2.4336,-2.4343,-2.4352,-2.45,-2.4361,-2.4367,-2.437,-2.4679,-2.4685,-2.469,0,0,0,0,0,0,-2.4191,-2.4207,-2.4329,-2.4268,-2.4282,-2.4273,-2.4313,-2.4309,-2.433,-2.4329,-2.4326,-2.4309,-2.4333,-2.4343,-2.4434,-2.4501,-2.4369,-2.4375,-2.4674,-2.4681,-2.4688,-2.4799,0,0,0,0,0,0,-2.4187,-2.4206,-2.4255,-2.4269,-2.4285,-2.4412,-2.4317,-2.4313,-2.4341,-2.4332,-2.4351,-2.435,-2.433,-2.4425,-2.444,-2.4507,-2.438,-2.4668,-2.4677,-2.4686,-2.4789,-2.4809,-2.4825,0,0,0,0,0,-2.4181,-2.4284,-2.4258,-2.4273,-2.4346,-2.4416,-2.4425,-2.44,-2.4347,-2.4395,-2.4394,-2.4349,-2.4491,-2.4435,-2.4452,-2.4521,-2.4664,-2.4675,-2.4685,-2.4781,-2.4805,-2.4825,0,0,0,0,0,0,-2.4277,-2.4285,-2.4256,-2.4367,-2.4392,-2.4401,-2.4462,-2.4426,-2.4466,-2.4455,-2.4422,-2.4427,-2.4525,-2.4532,-2.447,-2.4643,-2.4568,-2.4583,-2.4636,-2.4658,-2.4676,-2.4673,-2.4385,0,0,0,0,0,-2.4311,-2.4368,-2.4372,-2.4469,-2.4483,-2.4471,-2.45,-2.4479,-2.4502,-2.4512,-2.4517,-2.4542,-2.4591,-2.4625,-2.4671,-2.4789,-2.4791,-2.4845,-2.4863,-2.4878,-2.4891,-2.4953,-2.4977,-2.4725,-2.4725,-2.4725,0,0,-2.4383,-2.4394,-2.4432,-2.4489,-2.4505,-2.4564,-2.448,-2.4546,-2.4589,-2.4522,-2.4608,-2.4613,-2.4638,-2.4743,-2.4789,-2.4751,-2.4961,-2.4891,-2.4903,-2.4908,-2.4966,-2.499,-2.5011,-2.4733,-2.4731,-2.473,0,0,-2.4543,-2.4557,-2.464,-2.4658,-2.4684,-2.4674,-2.4694,-2.4709,-2.471,-2.4796,-2.4746,-2.4797,-2.4883,-2.4903,-2.4924,-2.509,-2.505,-2.5106,-2.5202,-2.5263,-2.5282,-2.53,-2.5359,-2.5381,-2.5119,-2.5119,-2.5119,0,-2.4628,-2.4716,-2.4687,-2.4757,-2.4783,-2.4724,-2.4808,-2.4826,-2.4866,-2.4885,-2.4842,-2.4949,-2.4961,-2.507,-2.511,-2.5129,-2.515,-2.5104,-2.5282,-2.5299,-2.5315,-2.5371,-2.5393,-2.5126,-2.5125,-2.5124,-2.5124,0,-2.4819,-2.4881,-2.4944,-2.4984,-2.5017,-2.5093,-2.5075,-2.5112,-2.5087,-2.5082,-2.517,-2.5183,-2.523,-2.5253,-2.523,-2.5358,-2.5334,-2.5287,-2.5211,-2.5346,-2.5398,-2.5419,-2.5135,-2.5133,-2.5131,-2.5129,0,0,-2.5044,-2.5065,-2.5089,-2.5106,-2.513,-2.5176,-2.5249,-2.5295,-2.5327,-2.5356,-2.5415,-2.5489,-2.5446,-2.547,-2.5448,-2.5501,-2.5632,-2.5448,-2.5448,-2.5482,-2.5773,-2.5809,-2.5835,-2.5605,-2.5609,-2.5612,-2.5771,0,-2.5203,-2.533,-2.5305,-2.5428,-2.5484,-2.5429,-2.5492,-2.5513,-2.5509,-2.5556,-2.5551,-2.5605,-2.5543,-2.5557,-2.5608,-2.5606,-2.569,-2.5593,-2.566,-2.5663,-2.5656,-2.5862,-2.59,-2.605,-2.5792,-2.5795,-2.5797,0,-2.5407,-2.5443,-2.5573,-2.5586,-2.5609,-2.5666,-2.5706,-2.5751,-2.5773,-2.5766,-2.5793,-2.576,-2.5831,-2.5754,-2.5851,-2.5786,-2.5811,-2.5814,-2.5819,-2.5825,-2.5739,-2.5873,-2.6097,-2.612,-2.5829,-2.5827,-2.5824,0,-2.5558,-2.5639,-2.5726,-2.5742,-2.5761,-2.5802,-2.5811,-2.5829,-2.5858,-2.5892,-2.591,-2.5952,-2.5976,-2.6008,-2.5988,-2.5933,-2.6088,-2.6009,-2.6085,-2.6085,-2.6121,-2.6119,-2.6352,-2.6137,-2.6136,-2.6136,-2.6135,0,-2.5739,-2.5821,-2.5794,-2.5848,-2.5937,-2.5907,-2.5996,-2.5998,-2.6014,-2.6067,-2.602,-2.6071,-2.604,-2.6087,-2.6071,-2.6154,-2.6165,-2.6161,-2.6156,-2.6166,-2.6166,-2.6183,-2.6172,-2.6142,-2.614,-2.6139,-2.6138,0,-2.5924,-2.5909,-2.6001,-2.601,-2.6014,-2.6079,-2.6087,-2.6136,-2.6129,-2.6196,-2.621,-2.6199,-2.6252,-2.6234,-2.6291,-2.628,-2.6386,-2.6367,-2.6379,-2.6374,-2.6451,-2.6444,-2.6703,-2.6735,-2.6499,-2.6501,-2.6503,0,-2.6041,-2.6102,-2.6117,-2.615,-2.6162,-2.6215,-2.6244,-2.6216,-2.6248,-2.6277,-2.6323,-2.6372,-2.6411,-2.6498,-2.6495,-2.6538,-2.652,-2.6607,-2.6526,-2.6533,-2.6521,-2.6518,-2.6524,-2.6624,-2.6627,-2.6629,-2.6631,0,-2.625,-2.624,-2.6284,-2.6326,-2.6362,-2.6394,-2.6421,-2.645,-2.6423,-2.6461,-2.6516,-2.6545,-2.6603,-2.6652,-2.6691,-2.6699,-2.6661,-2.6656,-2.6676,-2.6687,-2.6691,-2.669,-2.6424,-2.6651,-2.6649,-2.6647,-2.6646,-2.6645,-2.6405,-2.6456,-2.6475,-2.6526,-2.6543,-2.6569,-2.6616,-2.6614,-2.6659,-2.6705,-2.6685,-2.6747,-2.6766,-2.6814,-2.6827,-2.6875,-2.6841,-2.687,-2.6877,-2.6885,-2.6895,-2.6683,-2.6882,-2.6881,-2.6881,-2.688,-2.688,0,-2.6612,-2.6621,-2.6668,-2.6707,-2.6747,-2.6707,-2.6734,-2.677,-2.6825,-2.6846,-2.6884,-2.6946,-2.6993,-2.6993,-2.7036,-2.7074,-2.7058,-2.7087,-2.7084,-2.7086,-2.6923,-2.6901,-2.7099,-2.7099,-2.7099,-2.7099,-2.7099,-2.7099,-2.6724,-2.6809,-2.6801,-2.6893,-2.6901,-2.6963,-2.6982,-2.7005,-2.7021,-2.7093,-2.7132,-2.7131,-2.7143,-2.7187,-2.7228,-2.7226,-2.7244,-2.728,-2.7272,-2.712,-2.7098,-2.7077,-2.7057,-2.7284,-2.7285,-2.7432,-2.7433,-2.7434]},{"header":{"parameterUnit":"m.s-1","parameterCategory":1,"la1":30.2991,"la2":30.254,"lo1":-89.0895,"lo2":-89.0444,"dy":0.0017,"dx":0.0017,"nx":28,"ny":28,"refTime":"2023-08-28T09:00:00:Z","depth":0,"parameterNumber":3,"parameterNumberName":"V-component_of_WINDS"},"data":[0,0,0,0,0,0,0,0,0,0,0,0,0,0,0,0,0,0,0,0,0,0,0,0,0,0,0,0,0,0,0,0,0,0,0,0,0,0,0,0,0,0,0,0,0,0,0,0,0,0,0,0,0,0,0,0,0,0,-3.6404,-3.6404,0,-3.6451,-3.6451,-3.6452,-3.6393,-3.6391,-3.6389,-3.6387,-3.6432,-3.6435,-3.6439,0,0,0,0,0,0,0,0,0,0,0,0,0,-3.6258,-3.6261,-3.6404,-3.6404,-3.6405,-3.6451,-3.6452,-3.6452,-3.6393,-3.6391,-3.6388,-3.6386,-3.6431,-3.6435,-3.6439,0,0,0,0,0,0,0,0,0,0,0,0,0,-3.6315,-3.6262,-3.6403,-3.6381,-3.638,-3.6451,-3.6452,-3.6452,-3.6394,-3.6391,-3.6387,-3.6384,-3.643,-3.6435,-3.6439,-3.6534,0,0,-3.6454,-3.6456,0,0,0,0,0,0,0,0,-3.6312,-3.6321,-3.6384,-3.6383,-3.6381,-3.6413,-3.6417,-3.648,-3.6395,-3.6388,-3.6387,-3.6383,-3.6428,-3.6433,-3.6449,-3.6536,-3.6538,-3.6455,-3.6458,-3.646,-3.6461,0,0,0,0,0,0,0,-3.6308,-3.6318,-3.6422,-3.6385,-3.6383,-3.6367,-3.6372,-3.6429,-3.6426,-3.6389,-3.6385,-3.6391,-3.6427,-3.6444,-3.6449,-3.6539,-3.6454,-3.6459,-3.6462,-3.6464,-3.6704,-3.6707,0,0,0,0,0,0,-3.6307,-3.6315,-3.6421,-3.6424,-3.6338,-3.6373,-3.6378,-3.6406,-3.6425,-3.6425,-3.6394,-3.6388,-3.6438,-3.6444,-3.6451,-3.6561,-3.646,-3.6464,-3.6467,-3.67,-3.6705,-3.6708,0,0,0,0,0,0,-3.6304,-3.6317,-3.6419,-3.6368,-3.638,-3.6379,-3.6411,-3.6409,-3.6426,-3.6429,-3.6428,-3.6413,-3.6435,-3.6444,-3.6514,-3.6562,-3.6466,-3.6471,-3.6696,-3.6702,-3.6707,-3.6784,0,0,0,0,0,0,-3.6301,-3.6317,-3.6354,-3.637,-3.6383,-3.6482,-3.6414,-3.6412,-3.6435,-3.6428,-3.6446,-3.6446,-3.6434,-3.6507,-3.6518,-3.6567,-3.6474,-3.6692,-3.6699,-3.6705,-3.6778,-3.6792,-3.6804,0,0,0,0,0,-3.6296,-3.6373,-3.6356,-3.6369,-3.6429,-3.6485,-3.6492,-3.6477,-3.6439,-3.6475,-3.6477,-3.6445,-3.6555,-3.6514,-3.6527,-3.6578,-3.6689,-3.6697,-3.6704,-3.6772,-3.6789,-3.6804,0,0,0,0,0,0,-3.6362,-3.6375,-3.6356,-3.6441,-3.6463,-3.6475,-3.652,-3.6496,-3.6528,-3.652,-3.6499,-3.6504,-3.6578,-3.6585,-3.6539,-3.667,-3.6615,-3.6626,-3.6662,-3.6679,-3.6692,-3.6688,-3.6478,0,0,0,0,0,-3.6387,-3.6432,-3.6441,-3.6515,-3.6527,-3.6522,-3.6546,-3.6532,-3.6553,-3.6562,-3.6568,-3.6589,-3.6627,-3.6654,-3.669,-3.6778,-3.6781,-3.682,-3.6833,-3.6844,-3.6853,-3.6898,-3.6915,-3.6734,-3.6734,-3.6734,0,0,-3.6438,-3.6451,-3.6481,-3.6529,-3.6544,-3.659,-3.653,-3.6582,-3.6615,-3.6569,-3.6635,-3.6641,-3.6662,-3.6741,-3.6776,-3.6749,-3.6903,-3.6854,-3.6862,-3.6866,-3.6908,-3.6925,-3.6941,-3.6739,-3.6738,-3.6738,0,0,-3.6555,-3.657,-3.6633,-3.665,-3.6673,-3.6669,-3.6684,-3.67,-3.6702,-3.6769,-3.6735,-3.6773,-3.6841,-3.6858,-3.6875,-3.6997,-3.6968,-3.7009,-3.7078,-3.7122,-3.7137,-3.7149,-3.7191,-3.7207,-3.7019,-3.7019,-3.7019,0,-3.6616,-3.6685,-3.6669,-3.6722,-3.6744,-3.6705,-3.6768,-3.6784,-3.6818,-3.6833,-3.6802,-3.6886,-3.6898,-3.6979,-3.7009,-3.7025,-3.704,-3.7007,-3.7136,-3.7149,-3.716,-3.72,-3.7216,-3.7023,-3.7023,-3.7022,-3.7022,0,-3.6758,-3.6806,-3.6854,-3.6888,-3.6915,-3.6973,-3.6964,-3.6993,-3.6977,-3.6976,-3.7042,-3.7055,-3.7092,-3.7111,-3.7096,-3.719,-3.7172,-3.714,-3.7085,-3.7182,-3.7219,-3.7234,-3.703,-3.7028,-3.7027,-3.7026,0,0,-3.6918,-3.6942,-3.696,-3.6974,-3.6997,-3.7033,-3.7089,-3.7126,-3.715,-3.7175,-3.722,-3.7278,-3.7247,-3.7267,-3.7253,-3.7292,-3.7386,-3.7254,-3.7254,-3.7277,-3.7489,-3.7513,-3.7531,-3.7368,-3.7371,-3.7373,-3.7487,0,-3.7034,-3.7131,-3.7117,-3.721,-3.7253,-3.7217,-3.7265,-3.7283,-3.7284,-3.7319,-3.7319,-3.736,-3.7317,-3.7329,-3.7366,-3.7367,-3.7428,-3.7359,-3.7408,-3.741,-3.7403,-3.755,-3.7576,-3.7682,-3.7501,-3.7504,-3.7505,0,-3.7182,-3.7212,-3.731,-3.7325,-3.7342,-3.7386,-3.7418,-3.7453,-3.7473,-3.747,-3.7492,-3.747,-3.7524,-3.7469,-3.7542,-3.7495,-3.7514,-3.7518,-3.7521,-3.7524,-3.7463,-3.7556,-3.7716,-3.7732,-3.7528,-3.7526,-3.7525,0,-3.7287,-3.7353,-3.7419,-3.7432,-3.7452,-3.7483,-3.7492,-3.7509,-3.7531,-3.7559,-3.7573,-3.7607,-3.7625,-3.7651,-3.7639,-3.76,-3.7714,-3.7658,-3.7711,-3.7712,-3.7736,-3.7734,-3.79,-3.7751,-3.7751,-3.775,-3.775,0,-3.7418,-3.7478,-3.7466,-3.7507,-3.7573,-3.7556,-3.7622,-3.7626,-3.7641,-3.7681,-3.7651,-3.7689,-3.7671,-3.7707,-3.7698,-3.7759,-3.7768,-3.7766,-3.7762,-3.7768,-3.7768,-3.7779,-3.7771,-3.7755,-3.7754,-3.7753,-3.7752,0,-3.7546,-3.7541,-3.761,-3.7623,-3.7627,-3.7675,-3.7685,-3.7723,-3.772,-3.7771,-3.7782,-3.7778,-3.7819,-3.781,-3.7854,-3.7848,-3.7924,-3.7912,-3.7918,-3.7914,-3.7967,-3.7962,-3.8145,-3.8168,-3.8005,-3.8007,-3.8008,0,-3.7629,-3.7675,-3.7692,-3.7717,-3.7729,-3.777,-3.7793,-3.7777,-3.7802,-3.7827,-3.7861,-3.79,-3.7929,-3.7996,-3.7996,-3.803,-3.8017,-3.8079,-3.8022,-3.8026,-3.8016,-3.8013,-3.8017,-3.809,-3.8092,-3.8094,-3.8095,0,-3.7776,-3.7771,-3.7806,-3.784,-3.7869,-3.7894,-3.7917,-3.7939,-3.7925,-3.7955,-3.7996,-3.8019,-3.8065,-3.8102,-3.8133,-3.8141,-3.8115,-3.8113,-3.8127,-3.8132,-3.8133,-3.8132,-3.7947,-3.8109,-3.8107,-3.8106,-3.8105,-3.8105,-3.7884,-3.7922,-3.794,-3.7979,-3.7995,-3.8017,-3.8052,-3.8054,-3.8089,-3.8125,-3.8114,-3.8161,-3.8177,-3.8216,-3.8228,-3.8263,-3.824,-3.826,-3.8265,-3.827,-3.8276,-3.8129,-3.8269,-3.8269,-3.8268,-3.8268,-3.8268,0,-3.8028,-3.8038,-3.8074,-3.8107,-3.8138,-3.8112,-3.8135,-3.8162,-3.8204,-3.8223,-3.8252,-3.8299,-3.8336,-3.8339,-3.8373,-3.84,-3.8389,-3.841,-3.8407,-3.8408,-3.8296,-3.828,-3.8418,-3.8418,-3.8418,-3.8418,-3.8418,-3.8418,-3.8107,-3.817,-3.8167,-3.8236,-3.8245,-3.8292,-3.8307,-3.8326,-3.834,-3.8395,-3.8425,-3.8427,-3.8439,-3.8473,-3.8504,-3.8504,-3.8517,-3.8542,-3.8537,-3.8432,-3.8417,-3.8402,-3.8387,-3.8545,-3.8545,-3.8646,-3.8647,-3.8648]}]]